Tracking 20748 objects as of 4-Jun-2020
HD Live streaming from Space Station
objects crossing your sky now
Track the most recent launched group of Starlink satellites

ANTARES R/B


ANTARES R/B is no longer on orbit


NORAD ID: 41819
Int'l Code: 2016-062B
Perigee: N/A
Apogee: N/A
Inclination: N/A
Period: N/A
Semi major axis: N/A
RCS: N/A
Launch date: October 17, 2016
Source: United States (US)
Launch site: WALLOPS ISLAND (WLPIS)
Decay date: 2016-11-06
aabbcc
Your satellite tracking list
Your tracking list is empty




NASA's NSSDC Master Catalog

Two Line Element Set (TLE):
1 41819U 16062B   16311.63500173  .13407576  12580-4  20072-3 0  9992
2 41819  51.5697  59.4327 0014174 263.9573  96.2939 16.47438194  3176
Source of the keplerian elements: AFSPC